Welcome to the New NWS' Forecast!
Most changes are behind the scenes, but click here for differences you might notice.

Regional Weather Roundup (RWR)

Issued by National Weather Service (NWS)

                            
000
ASUS46 KSEW 151110
RWRWA 

WASHINGTON REGIONAL WEATHER ROUNDUP
NATIONAL WEATHER SERVICE SEATTLE WA
300 AM PST THU NOV 15 2018

NOTE:"FAIR" INDICATES FEW OR NO CLOUDS BELOW 12,000 FEET WITH NO 
SIGNIFICANT WEATHER AND/OR OBSTRUCTIONS TO VISIBILITY.

WAZ507-509-555>559-151200-
SEATTLE, TACOMA, EVERETT, AND VICINITY
  
CITY           SKY/WX    TMP DP  RH WIND       PRES   REMARKS
EVERETT        CLOUDY    49  47  93 S7        30.37F                  
BOEING FIELD   CLOUDY    51  47  86 SE5       30.39R                  
RENTON         CLOUDY    52  47  83 CALM      30.38S                  
SEATAC AIRPORT LGT RAIN  50  47  89 S3        30.38S FOG              
JBLM-MCCHORD   CLOUDY    47  47 100 S5        30.38F                  
PUYALLUP       CLOUDY    48  48 100 CALM      30.38S                  
BREMERTON      CLOUDY    48  47  96 S3        30.38R FOG              
JBLM-FT LEWIS  CLOUDY    44  44 100 SE5       30.37F                  
TACOMA NARROWS CLOUDY    48  45  89 CALM      30.38S                  
$$
 
WAZ001-503-506-510-514-515-151200-
NORTH INTERIOR
  
CITY           SKY/WX    TMP DP  RH WIND       PRES   REMARKS
BELLINGHAM     CLOUDY    51  47  86 S9        30.36R                  
FRIDAY HARBOR  CLOUDY    50  48  93 SE5       30.37S FOG              
EASTSOUND      CLOUDY    50  50 100 S9        30.35R                  
PORT ANGELES   CLOUDY    46  43  89 W6        30.37S                  
EDIZ HOOK      CLOUDY    48  46  93 CALM      30.36F                  
PORT TOWNSEND  CLOUDY    43  43 100 CALM      30.37S FOG              
NAS WHIDBEY    MOCLDY    51  47  86 SE3       30.41S                  
ARLINGTON      CLOUDY    46  46 100 N3        30.38F                  
BURLINGTON     CLOUDY    48  48 100 CALM      30.38S                  
$$
 
WAZ020-022-039-040-504-511-512-151200-
SOUTHWEST INTERIOR
  
CITY           SKY/WX    TMP DP  RH WIND       PRES   REMARKS
SHELTON        PTCLDY    47  46  97 SW6       30.35S FOG              
OLYMPIA        CLOUDY    45  44  97 SE5       30.38F FOG              
CHEHALIS       CLOUDY    46  46 100 SW5       30.39S FOG              
KELSO          CLOUDY    42  41  96 CALM      30.41S FOG              
VANCOUVER      CLOUDY    48  45  89 CALM      30.39F FOG              
SCAPPOOSE, OR  CLOUDY    46  45  96 N3        30.38F FOG              
PORTLAND, OR   CLOUDY    47  45  93 CALM      30.39F FOG              
$$
 
WAZ021-516-517-151200-
WASHINGTON COAST
  
CITY           SKY/WX    TMP DP  RH WIND       PRES   REMARKS
FORKS          CLOUDY    47  47 100 CALM      30.37R                  
HOQUIAM        CLOUDY    52  51  97 NE3       30.38S FOG              
ASTORIA, OR    CLEAR     47  46  97 E3        30.37F FOG              
$$
 
WAZ019-023-024-040-567>569-151200-
CASCADE MOUNTAINS AND COLUMBIA GORGE
  
CITY           SKY/WX    TMP DP  RH WIND       PRES   REMARKS
STAMPEDE PASS  NOT AVBL                                               
TROUTDALE, OR  CLOUDY    47  46  97 CALM      30.39F FOG              
HOOD RIVER, OR FOG       36  34  93 CALM      30.39S VSB 1/2          
THE DALLES, OR PTCLDY    38  36  92 SE6       30.38S                  
$$

WAZ026-027-041>044-520-521-151200-
EAST SLOPES
  
CITY           SKY/WX    TMP DP  RH WIND       PRES   REMARKS
OMAK           CLOUDY    32  30  92 CALM      30.38S                  
WENATCHEE      CLOUDY    32  30  92 N3        30.35F                  
ELLENSBURG     MOCLDY    39  35  86 CALM      30.32S                  
YAKIMA         MOCLDY    25  23  92 CALM      30.36F FOG              
SUNNYSIDE ARPT PTSUNNY   28  28  97 CALM      30.37  FOG              
YAKIMA TC      PTSUNNY   28  26  92 CALM      30.33S FOG              
$$

WAZ028-034-035-151200-
COLUMBIA BASIN
  
CITY           SKY/WX    TMP DP  RH WIND       PRES   REMARKS
EPHRATA        CLOUDY    31  29  92 CALM      30.35F                  
MOSES LAKE     CLOUDY    31  29  92 NW3       30.36F                  
PASCO          MOCLDY    32  29  88 CALM      30.41F                  
RICHLAND ARPT  PTSUNNY   32  31  97 CALM      30.40  FOG              
HERMISTON, OR  PTCLDY    34  32  92 CALM      30.36S                  
$$

WAZ036>038-151200-
NORTHEAST WASHINGTON
  
CITY           SKY/WX    TMP DP  RH WIND       PRES   REMARKS
SPOKANE GEIGER PTCLDY    31  28  89 SE5       30.32S                  
SPOKANE FELTS  PTCLDY    31  28  89 CALM      30.35S FOG              
FAIRCHILD AFB  CLEAR     28  28 100 CALM      30.30F                  
COEURDALENE,ID PTCLDY    24  23  96 CALM      30.33S                  
DEER PARK      PTCLDY    23  20  88 CALM      30.33F FOG              
$$

WAZ029>033-151200-
SOUTHEAST WASHINGTON
  
CITY           SKY/WX    TMP DP  RH WIND       PRES   REMARKS
PULLMAN        PTCLDY    37  34  89 NE3       30.35S                  
LEWISTON, ID   CLOUDY    44  34  67 CALM      30.35F                  
WALLA WALLA    PTCLDY    36  31  82 W5        30.35F                  
PENDLETON, OR  CLEAR     44  37  76 CALM      30.34S                  
$$